Terminal Aerodrome Forecast
Issued by NWS Quad Cities IA IL

Home | Current Version | Previous Version | Text Only | Print | Product List | Glossary On
Versions: 1 2 3 4 5 6 7 8 9 10 11 12 13 14 15 16 17 18 19 20 21 22 23
000
FTUS43 KDVN 180600 AAA
TAFMLI
TAF AMD
KMLI 180641Z 1807/1906 00000KT 3SM BR SKC
      TEMPO 1807/1811 1SM BR
     FM181400 11005KT P6SM FEW030
     FM181800 12007KT P6SM SKC=

USA.gov is the U.S. government's official web portal to all federal, state and local government web resources and services.